Location: Alulod
(14.2076°N, 120.8898°E)
Time: 02:44:00
(UTC+00:00)

USA 238 DEB - Pass Details

Date: 21 March 2026
Orbit: 883 x 1328 km, 63.4° (Epoch: 10 January)

Event Time Altitude Azimuth Distance (km) Brightness Sun altitude
Rises 20:51:11 0° 323° (NW) 4,213 6.5 -17.4°
Reaches altitude 10° 20:54:06 10° 316° (NW) 3,286 5.9 -16.7°
Maximum altitude 21:01:34 42° 249° (WSW) 1,795 4.4 -14.9°
Drops below altitude 10° 21:09:12 10° 181° (S) 3,340 6.2 -13.0°
Sets 21:12:13 0° 174° (S) 4,288 6.9 -12.3°
